Time,TemperatureF,DewpointF,PressureIn,WindDirection,WindDirectionDegrees,WindSpeedMPH,WindSpeedGustMPH,Humidity,HourlyPrecipIn,Conditions,Clouds,dailyrainin,SolarRadiationWatts/m^2,SoftwareType,DateUTC
2013-06-25 00:01:00,71.0,71.0,-100.00,ESE,111,0.0,0.0,100,0.00,,,0.00,0.000000,,2013-06-25 04:01:00,
2013-06-25 00:02:00,71.0,71.0,-100.00,ESE,111,0.0,0.0,100,0.00,,,0.00,0.000000,,2013-06-25 04:02:00,
2013-06-25 00:11:00,71.0,71.0,-100.00,ESE,111,0.0,0.0,100,0.00,,,0.00,0.000000,,2013-06-25 04:11:00,
2013-06-25 00:22:00,71.0,71.0,-100.00,ESE,111,0.0,0.0,100,0.00,,,0.00,0.000000,,2013-06-25 04:22:00,
2013-06-25 00:52:00,71.0,71.0,-100.00,ESE,110,0.0,0.0,100,0.00,,,0.00,0.000000,,2013-06-25 04:52:00,
2013-06-25 01:01:00,71.0,71.0,-100.00,ESE,110,0.0,0.0,100,0.00,,,0.00,0.000000,,2013-06-25 05:01:00,
2013-06-25 01:11:00,71.0,71.0,-100.00,ESE,110,0.0,0.0,100,0.00,,,0.00,0.000000,,2013-06-25 05:11:00,
2013-06-25 01:22:00,71.0,71.0,-100.00,ESE,110,0.0,0.0,100,0.00,,,0.00,0.000000,,2013-06-25 05:22:00,
2013-06-25 01:44:00,71.0,71.0,-100.00,ESE,114,0.0,0.0,100,0.00,,,0.00,0.000000,,2013-06-25 05:44:00,
2013-06-25 01:52:00,71.0,71.0,-100.00,ESE,114,0.0,0.0,100,0.00,,,0.00,0.000000,,2013-06-25 05:52:00,
2013-06-25 02:01:00,71.0,71.0,-100.00,ESE,114,0.0,0.0,100,0.00,,,0.00,0.000000,,2013-06-25 06:01:00,
2013-06-25 02:11:00,71.0,71.0,-100.00,ESE,114,0.0,0.0,100,0.00,,,0.00,0.000000,,2013-06-25 06:11:00,
2013-06-25 02:22:00,71.0,71.0,-100.00,ESE,114,0.0,0.0,100,0.00,,,0.00,0.000000,,2013-06-25 06:22:00,
2013-06-25 02:43:00,70.0,70.0,-100.00,ESE,118,0.0,0.0,100,0.00,,,0.00,0.000000,,2013-06-25 06:43:00,
2013-06-25 02:52:00,70.0,70.0,-100.00,ESE,118,0.0,0.0,100,0.00,,,0.00,0.000000,,2013-06-25 06:52:00,
2013-06-25 03:02:00,70.0,70.0,-100.00,ESE,118,0.0,0.0,100,0.00,,,0.00,0.000000,,2013-06-25 07:02:00,
2013-06-25 03:11:00,70.0,70.0,-100.00,ESE,118,0.0,0.0,100,0.00,,,0.00,0.000000,,2013-06-25 07:11:00,
2013-06-25 03:22:00,70.0,70.0,-100.00,ESE,118,0.0,0.0,100,0.00,,,0.00,0.000000,,2013-06-25 07:22:00,
2013-06-25 03:52:00,69.0,69.0,-100.00,ESE,110,0.0,0.0,100,0.00,,,0.00,0.000000,,2013-06-25 07:52:00,
2013-06-25 04:02:00,69.0,69.0,-100.00,ESE,110,0.0,0.0,100,0.00,,,0.00,0.000000,,2013-06-25 08:02:00,
2013-06-25 04:11:00,69.0,69.0,-100.00,ESE,110,0.0,0.0,100,0.00,,,0.00,0.000000,,2013-06-25 08:11:00,
2013-06-25 04:22:00,69.0,69.0,-100.00,ESE,110,0.0,0.0,100,0.00,,,0.00,0.000000,,2013-06-25 08:22:00,
2013-06-25 04:53:00,68.0,68.0,-100.00,East,100,0.0,0.0,100,0.00,,,0.00,0.000000,,2013-06-25 08:53:00,
2013-06-25 05:02:00,68.0,68.0,-100.00,East,100,0.0,0.0,100,0.00,,,0.00,0.000000,,2013-06-25 09:02:00,
2013-06-25 05:12:00,68.0,68.0,-100.00,East,100,0.0,0.0,100,0.00,,,0.00,0.000000,,2013-06-25 09:12:00,
2013-06-25 05:22:00,68.0,68.0,-100.00,East,100,0.0,0.0,100,0.00,,,0.00,0.000000,,2013-06-25 09:22:00,
2013-06-25 05:53:00,67.0,67.0,-100.00,SE,125,0.0,0.0,100,0.00,,,0.00,0.000000,,2013-06-25 09:53:00,
2013-06-25 06:01:00,67.0,67.0,-100.00,SE,125,0.0,0.0,100,0.00,,,0.00,0.000000,,2013-06-25 10:01:00,
2013-06-25 06:11:00,67.0,67.0,-100.00,SE,125,0.0,0.0,100,0.00,,,0.00,0.000000,,2013-06-25 10:11:00,
2013-06-25 06:21:00,67.0,67.0,-100.00,SE,125,0.0,0.0,100,0.00,,,0.00,0.000000,,2013-06-25 10:21:00,
2013-06-25 06:43:00,66.0,66.0,-100.00,ESE,112,0.0,0.0,100,0.00,,,0.00,2.000000,,2013-06-25 10:43:00,
2013-06-25 06:52:00,66.0,66.0,-100.00,ESE,112,0.0,0.0,100,0.00,,,0.00,2.000000,,2013-06-25 10:52:00,
2013-06-25 07:02:00,66.0,66.0,-100.00,ESE,112,0.0,0.0,100,0.00,,,0.00,2.000000,,2013-06-25 11:02:00,
2013-06-25 07:12:00,66.0,66.0,-100.00,ESE,112,0.0,0.0,100,0.00,,,0.00,2.000000,,2013-06-25 11:12:00,
2013-06-25 07:22:00,66.0,66.0,-100.00,ESE,112,0.0,0.0,100,0.00,,,0.00,2.000000,,2013-06-25 11:22:00,
2013-06-25 07:52:00,68.0,68.0,-100.00,ESE,123,0.0,2.0,100,0.00,,,0.00,35.000000,,2013-06-25 11:52:00,
2013-06-25 08:02:00,68.0,68.0,-100.00,ESE,123,0.0,2.0,100,0.00,,,0.00,35.000000,,2013-06-25 12:02:00,
2013-06-25 08:11:00,68.0,68.0,-100.00,ESE,123,0.0,2.0,100,0.00,,,0.00,35.000000,,2013-06-25 12:11:00,
2013-06-25 08:22:00,68.0,68.0,-100.00,ESE,123,0.0,2.0,100,0.00,,,0.00,35.000000,,2013-06-25 12:22:00,
2013-06-25 08:55:00,72.0,72.0,-100.00,East,95,0.0,2.0,100,0.00,,,0.00,126.000000,,2013-06-25 12:55:00,
2013-06-25 09:02:00,72.0,72.0,-100.00,East,95,0.0,2.0,100,0.00,,,0.00,126.000000,,2013-06-25 13:02:00,
2013-06-25 09:12:00,72.0,72.0,-100.00,East,95,0.0,2.0,100,0.00,,,0.00,126.000000,,2013-06-25 13:12:00,
2013-06-25 09:22:00,72.0,72.0,-100.00,East,95,0.0,2.0,100,0.00,,,0.00,126.000000,,2013-06-25 13:22:00,
2013-06-25 09:23:00,74.0,74.0,-100.00,SSE,167,0.0,0.0,100,0.00,,,0.00,210.000000,,2013-06-25 13:23:00,
2013-06-25 09:53:00,74.0,74.0,-100.00,SSE,167,0.0,0.0,100,0.00,,,0.00,210.000000,,2013-06-25 13:53:00,
2013-06-25 10:02:00,74.0,74.0,-100.00,SSE,167,0.0,0.0,100,0.00,,,0.00,210.000000,,2013-06-25 14:02:00,
2013-06-25 10:11:00,74.0,74.0,-100.00,SSE,167,0.0,0.0,100,0.00,,,0.00,210.000000,,2013-06-25 14:11:00,
2013-06-25 11:23:00,83.0,78.0,-100.00,North,1,0.0,0.0,84,0.00,,,0.00,621.000000,,2013-06-25 15:23:00,
2013-06-25 11:53:00,83.0,78.0,-100.00,North,1,0.0,0.0,84,0.00,,,0.00,621.000000,,2013-06-25 15:53:00,
2013-06-25 12:03:00,83.0,78.0,-100.00,North,1,0.0,0.0,84,0.00,,,0.00,621.000000,,2013-06-25 16:03:00,
2013-06-25 12:12:00,83.0,78.0,-100.00,North,1,0.0,0.0,84,0.00,,,0.00,621.000000,,2013-06-25 16:12:00,
2013-06-25 13:23:00,88.0,79.0,-100.00,North,7,0.0,0.0,74,0.00,,,0.00,810.000000,,2013-06-25 17:23:00,
2013-06-25 13:44:00,88.0,79.0,-100.00,North,7,0.0,0.0,74,0.00,,,0.00,810.000000,,2013-06-25 17:44:00,
2013-06-25 13:53:00,88.0,79.0,-100.00,North,7,0.0,0.0,74,0.00,,,0.00,810.000000,,2013-06-25 17:53:00,
2013-06-25 14:02:00,88.0,79.0,-100.00,North,7,0.0,0.0,74,0.00,,,0.00,810.000000,,2013-06-25 18:02:00,
2013-06-25 14:12:00,88.0,79.0,-100.00,North,7,0.0,0.0,74,0.00,,,0.00,810.000000,,2013-06-25 18:12:00,
2013-06-25 14:53:00,90.0,78.0,-100.00,ENE,57,0.0,0.0,69,0.00,,,0.00,827.000000,,2013-06-25 18:53:00,
2013-06-25 15:01:00,90.0,78.0,-100.00,ENE,57,0.0,0.0,69,0.00,,,0.00,827.000000,,2013-06-25 19:01:00,
2013-06-25 15:12:00,90.0,78.0,-100.00,ENE,57,0.0,0.0,69,0.00,,,0.00,827.000000,,2013-06-25 19:12:00,
2013-06-25 15:22:00,90.0,78.0,-100.00,ENE,57,0.0,0.0,69,0.00,,,0.00,827.000000,,2013-06-25 19:22:00,
2013-06-25 15:44:00,91.0,78.0,-100.00,NE,53,0.0,0.0,65,0.00,,,0.00,762.000000,,2013-06-25 19:44:00,
2013-06-25 15:54:00,91.0,78.0,-100.00,NE,53,0.0,0.0,65,0.00,,,0.00,762.000000,,2013-06-25 19:54:00,
2013-06-25 16:02:00,91.0,78.0,-100.00,NE,53,0.0,0.0,65,0.00,,,0.00,762.000000,,2013-06-25 20:02:00,
2013-06-25 16:11:00,91.0,78.0,-100.00,NE,53,0.0,0.0,65,0.00,,,0.00,762.000000,,2013-06-25 20:11:00,
2013-06-25 16:22:00,91.0,78.0,-100.00,NE,53,0.0,0.0,65,0.00,,,0.00,762.000000,,2013-06-25 20:22:00,
2013-06-25 16:52:00,92.0,79.0,-100.00,NE,50,0.0,0.0,65,0.00,,,0.00,723.000000,,2013-06-25 20:52:00,
2013-06-25 17:01:00,92.0,79.0,-100.00,NE,50,0.0,0.0,65,0.00,,,0.00,723.000000,,2013-06-25 21:01:00,
2013-06-25 17:11:00,92.0,79.0,-100.00,NE,50,0.0,0.0,65,0.00,,,0.00,723.000000,,2013-06-25 21:11:00,
2013-06-25 17:22:00,92.0,79.0,-100.00,NE,50,0.0,0.0,65,0.00,,,0.00,723.000000,,2013-06-25 21:22:00,
2013-06-25 18:22:00,78.0,68.0,-100.00,ENE,70,1.0,30.0,71,0.00,,,0.00,375.000000,,2013-06-25 22:22:00,
2013-06-25 18:52:00,75.0,75.0,-100.00,ENE,73,2.0,6.0,100,0.00,,,0.00,25.000000,,2013-06-25 22:52:00,
2013-06-25 19:01:00,75.0,75.0,-100.00,ENE,73,2.0,6.0,100,0.00,,,0.00,25.000000,,2013-06-25 23:01:00,
2013-06-25 19:11:00,75.0,75.0,-100.00,ENE,73,2.0,6.0,100,0.00,,,0.00,25.000000,,2013-06-25 23:11:00,
2013-06-25 19:22:00,75.0,75.0,-100.00,ENE,73,2.0,6.0,100,0.00,,,0.00,25.000000,,2013-06-25 23:22:00,
2013-06-25 19:44:00,75.0,75.0,-100.00,ESE,123,2.0,8.0,100,0.00,,,0.00,61.000000,,2013-06-25 23:44:00,
2013-06-25 19:52:00,75.0,75.0,-100.00,ESE,123,2.0,8.0,100,0.00,,,0.00,61.000000,,2013-06-25 23:52:00,
2013-06-25 20:02:00,75.0,75.0,-100.00,ESE,123,2.0,8.0,100,0.00,,,0.00,61.000000,,2013-06-26 00:02:00,
2013-06-25 20:11:00,75.0,75.0,-100.00,ESE,123,2.0,8.0,100,0.00,,,0.00,61.000000,,2013-06-26 00:11:00,
2013-06-25 20:22:00,75.0,75.0,-100.00,ESE,123,2.0,8.0,100,0.00,,,0.00,61.000000,,2013-06-26 00:22:00,
2013-06-25 20:53:00,75.0,75.0,-100.00,ESE,118,0.0,7.0,100,0.00,,,0.00,54.000000,,2013-06-26 00:53:00,
2013-06-25 21:01:00,75.0,75.0,-100.00,ESE,118,0.0,7.0,100,0.00,,,0.00,54.000000,,2013-06-26 01:01:00,
2013-06-25 21:11:00,75.0,75.0,-100.00,ESE,118,0.0,7.0,100,0.00,,,0.00,54.000000,,2013-06-26 01:11:00,
2013-06-25 21:22:00,75.0,75.0,-100.00,ESE,118,0.0,7.0,100,0.00,,,0.00,54.000000,,2013-06-26 01:22:00,
2013-06-25 21:53:00,73.0,73.0,-100.00,ESE,118,0.0,2.0,100,0.00,,,0.00,14.000000,,2013-06-26 01:53:00,
2013-06-25 22:02:00,73.0,73.0,-100.00,ESE,118,0.0,2.0,100,0.00,,,0.00,14.000000,,2013-06-26 02:02:00,
2013-06-25 22:11:00,73.0,73.0,-100.00,ESE,118,0.0,2.0,100,0.00,,,0.00,14.000000,,2013-06-26 02:11:00,
2013-06-25 22:22:00,73.0,73.0,-100.00,ESE,118,0.0,2.0,100,0.00,,,0.00,14.000000,,2013-06-26 02:22:00,
2013-06-25 22:43:00,72.0,72.0,-100.00,ESE,119,0.0,0.0,100,0.00,,,0.00,0.000000,,2013-06-26 02:43:00,
2013-06-25 23:52:00,75.0,75.0,-100.00,ESE,111,0.0,2.0,100,-99.99,,,0.00,0.000000,,2013-06-26 03:52:00,